Location: Limerick
(52.6800°N, 8.6400°W)
Time: 08:43:23
(UTC+01:00)

Amateur Radio Satellites - All Passes

Search period start: 31 May 2016 08:13
Search period end: 01 June 2016 08:13
Location: Limerick, 52.6800°N, 8.6400°W

Satellite Date Start Highest point End Downlink Frequencies (MHz)
Time Altitude Azimuth
HORYU 2 31 May 08:14:06 08:17:11 19° 303° (WNW) 08:20:15 437.375
SO-50 31 May 08:17:22 08:22:11 77° 44° (NE) 08:26:48 436.795
CUTE-I 31 May 08:18:43 08:24:07 86° 106° (ESE) 08:29:31 437.470
AO-7 31 May 08:21:55 08:28:24 26° 320° (NW) 08:34:54 29.400- 29.500
BRITE-PL 31 May 08:22:27 08:27:38 70° 288° (WNW) 08:32:21 437.365/2234.400
CUTE 1.7 + AOD 2 31 May 08:23:48 08:25:13 11° 85° (E) 08:26:37 437.475
GOMX 1 31 May 08:27:58 08:32:43 71° 102° (ESE) 08:37:06 467.674
AO-85 31 May 08:38:55 08:43:51 36° 330° (NNW) 08:48:35 145.980
AIST 1 31 May 08:48:04 08:52:27 80° 262° (W) 08:56:46
GONETS M04 31 May 08:48:48 08:57:22 55° 70° (ENE) 09:05:51
STRAND 1 31 May 08:54:09 08:58:30 28° 267° (W) 09:02:54 437.568
NOAA 15 31 May 08:55:31 09:00:27 40° 297° (WNW) 09:05:21 137.62
DOVE 4 31 May 08:57:55 09:02:20 68° 101° (ESE) 09:06:31 437.250
LilacSat-2 31 May 08:59:11 09:02:32 30° 294° (WNW) 09:05:53 437.200
CINEMA 3 31 May 09:01:10 09:04:39 25° 93° (E) 09:08:06 145.822/145.860
AUBIESAT-1 31 May 09:10:19 09:12:10 14° 97° (E) 09:14:01 437.475
Cubesat XI-IV 31 May 09:13:56 09:18:54 40° 297° (WNW) 09:23:52 437.490
PRISM 31 May 09:15:38 09:19:46 60° 258° (WSW) 09:23:56 437.425
M-CUBED/EXP-1 PRIME 31 May 09:19:53 09:22:27 21° 101° (E) 09:25:00 437.505
CUBEBUG 2 31 May 09:25:37 09:28:15 16° 89° (E) 09:30:54 437.445
SEEDS 31 May 09:26:09 09:30:00 32° 95° (E) 09:33:50 437.485
PCSat 31 May 09:30:02 09:34:32 27° 112° (ESE) 09:39:04 145.827
CANX-2 31 May 09:30:59 09:35:12 52° 100° (E) 09:39:24 2200.000
HO-68 31 May 09:37:20 09:44:23 54° 101° (E) 09:51:23 435.675
FUNcube-1 31 May 09:40:40 09:41:44 11° 85° (E) 09:42:50 145.935
NOAA 18 31 May 09:43:32 09:47:54 25° 305° (NW) 09:52:17 137.9125
UWE-3 31 May 09:45:53 09:48:49 18° 90° (E) 09:51:46 435.000/436.395/437.385
UNISAT 6 31 May 09:49:19 09:52:48 24° 61° (ENE) 09:56:15 437.425
TIGRISAT 31 May 09:55:26 09:58:59 26° 62° (ENE) 10:02:31 435.000
CUTE 1.7 + AOD 2 31 May 09:57:28 10:01:47 82° 106° (ESE) 10:06:05 437.475
Cosmos 2499 31 May 09:57:38 10:06:16 81° 78° (ENE) 10:15:11 435.465 / 435.565
SO-50 31 May 09:58:36 10:02:10 22° 245° (WSW) 10:05:39 436.795
CUTE-I 31 May 09:59:40 10:03:34 21° 307° (NW) 10:07:29 437.470
BRITE-PL 31 May 10:02:19 10:05:09 15° 310° (NW) 10:07:52 437.365/2234.400
AAUSAT CUBESAT 2 31 May 10:03:43 10:07:46 44° 98° (E) 10:11:48 437.432
DELFI C3 31 May 10:04:23 10:05:10 10° 85° (E) 10:05:57 145.870
COMPASS 1 31 May 10:04:58 10:09:09 55° 100° (E) 10:13:18 437.405
GOMX 1 31 May 10:06:54 10:10:17 20° 304° (NW) 10:13:31 467.674
O/OREOS (USA 219) 31 May 10:09:50 10:14:21 66° 115° (ESE) 10:18:51 437.305
AO-7 31 May 10:15:14 10:18:24 13° 346° (NNW) 10:21:34 29.400- 29.500
Oscar 11 31 May 10:17:01 10:20:48 28° 94° (E) 10:24:33 145.826/435.025
AO-85 31 May 10:21:44 10:25:42 21° 354° (N) 10:29:28 145.980
QB50P1 31 May 10:24:21 10:26:26 13° 54° (NE) 10:28:30 145.935-145.965
POPSAT HIP 1 31 May 10:24:23 10:26:25 13° 54° (NE) 10:28:27 437.405
QB50P2 31 May 10:27:41 10:30:05 15° 55° (NE) 10:32:28 145.880/145.840
AIST 1 31 May 10:28:11 10:29:15 11° 281° (W) 10:30:18
ANTELSAT 31 May 10:29:31 10:33:42 52° 69° (ENE) 10:37:52 437.575/2403.000
POLYITAN 1 31 May 10:30:08 10:32:33 15° 55° (NE) 10:34:58 437.675
JAS-2 31 May 10:31:04 10:34:59 15° 36° (NE) 10:38:53 435.910
DOVE 4 31 May 10:36:31 10:39:36 19° 303° (WNW) 10:42:34 437.250
CINEMA 3 31 May 10:38:04 10:42:00 41° 292° (WNW) 10:45:54 145.822/145.860
ZACube-1 31 May 10:38:40 10:42:38 39° 97° (E) 10:46:38 437.345
NANOSAT C BR1 31 May 10:39:43 10:42:27 17° 57° (ENE) 10:45:12 145.865
AUBIESAT-1 31 May 10:43:47 10:47:02 51° 296° (WNW) 10:50:16 437.475
GONETS M04 31 May 10:46:00 10:54:04 44° 274° (W) 11:02:05
CUSAT 1 31 May 10:51:50 10:57:15 23° 78° (ENE) 11:03:06 437.405
M-CUBED/EXP-1 PRIME 31 May 10:54:10 10:57:10 33° 300° (WNW) 11:00:09 437.505
CUBEBUG 2 31 May 11:01:12 11:05:21 67° 288° (WNW) 11:09:32 437.445
SEEDS 31 May 11:01:51 11:05:44 34° 294° (WNW) 11:09:36 437.485
CANX-2 31 May 11:07:24 11:10:48 23° 299° (WNW) 11:14:11 2200.000
PCSat 31 May 11:12:08 11:17:33 69° 312° (NW) 11:23:00 145.827
FUNcube-1 31 May 11:14:29 11:18:42 81° 104° (ESE) 11:22:59 145.935
DUCHIFAT 1 31 May 11:15:11 11:18:53 31° 64° (ENE) 11:22:36 145.980
BUGSAT 1 31 May 11:17:56 11:20:51 19° 59° (ENE) 11:23:46 437.445
UWE-3 31 May 11:21:33 11:25:40 59° 289° (WNW) 11:29:51 435.000/436.395/437.385
DANDE 31 May 11:22:11 11:26:35 19° 74° (ENE) 11:31:31 436.750
BEESAT 3 31 May 11:23:12 11:26:27 25° 119° (ESE) 11:29:42 437.485
UNISAT 6 31 May 11:25:07 11:29:18 48° 260° (W) 11:33:29 437.425
HO-68 31 May 11:25:20 11:32:00 43° 302° (WNW) 11:38:39 435.675
TIGRISAT 31 May 11:31:23 11:35:31 44° 261° (W) 11:39:37 435.000
CUTE 1.7 + AOD 2 31 May 11:34:27 11:37:06 16° 303° (WNW) 11:39:45 437.475
DELFI C3 31 May 11:36:39 11:40:44 82° 107° (ESE) 11:44:47 145.870
AAUSAT CUBESAT 2 31 May 11:39:36 11:43:05 26° 297° (WNW) 11:46:33 437.432
COMPASS 1 31 May 11:41:10 11:44:24 22° 299° (WNW) 11:47:38 437.405
HUMSAT D 31 May 11:48:41 11:52:47 53° 100° (E) 11:56:54 437.325/437.525
O/OREOS (USA 219) 31 May 11:50:27 11:54:11 24° 316° (NW) 11:57:55 437.305
Cosmos 2499 31 May 11:51:32 11:58:38 30° 280° (W) 12:05:56 435.465 / 435.565
Oscar 11 31 May 11:52:58 11:57:04 41° 293° (WNW) 12:01:09 145.826/435.025
Oscar 19 31 May 11:56:19 11:58:49 14° 48° (NE) 12:01:19 437.125/150
POPSAT HIP 1 31 May 11:57:19 12:01:33 80° 73° (ENE) 12:05:48 437.405
QB50P1 31 May 11:57:19 12:01:33 81° 73° (ENE) 12:05:48 145.935-145.965
QB50P2 31 May 12:01:03 12:05:18 89° 265° (W) 12:09:34 145.880/145.840
AO-85 31 May 12:03:31 12:07:44 25° 18° (NNE) 12:11:40 145.980
POLYITAN 1 31 May 12:03:33 12:07:47 87° 254° (WSW) 12:12:02 437.675
AO-7 31 May 12:04:29 12:07:43 13° 14° (NNE) 12:10:57 29.400- 29.500
ANTELSAT 31 May 12:07:26 12:10:44 21° 268° (W) 12:14:01 437.575/2403.000
Cosmos 2491 31 May 12:09:13 12:10:52 11° 27° (NNE) 12:12:32 435.465 / 435.565
JAS-2 31 May 12:11:00 12:18:03 41° 58° (ENE) 12:25:16 435.910
NANOSAT C BR1 31 May 12:13:30 12:17:43 75° 256° (WSW) 12:21:57 145.865
ZACube-1 31 May 12:15:15 12:18:50 28° 296° (WNW) 12:22:29 437.345
DX 1 31 May 12:19:28 12:21:59 15° 88° (E) 12:24:28 434.975-435.025
CUBEBUG 1 31 May 12:20:33 12:23:41 19° 90° (E) 12:26:48 437.445
CUSAT 1 31 May 12:31:04 12:38:13 83° 100° (E) 12:46:21 437.405
SPROUT 31 May 12:31:41 12:31:58 10° 84° (E) 12:32:15 437.525
ESTCUBE 1 31 May 12:32:11 12:36:20 33° 96° (E) 12:40:25 437.505/2401.250
BEESAT 2 31 May 12:32:56 12:36:53 62° 128° (SE) 12:40:50 435.950
VELOX 1 31 May 12:37:42 12:41:26 25° 93° (E) 12:45:06 145.980
CUBEBUG 2 31 May 12:40:03 12:41:14 11° 307° (NW) 12:42:26 437.445
50 SAT 31 May 12:49:37 12:53:04 34° 97° (E) 12:56:29 437.505
Gurwin Techsat 1B 31 May 12:49:41 12:53:02 17° 51° (NE) 12:56:23 435.225
DUCHIFAT 1 31 May 12:50:40 12:54:33 35° 263° (W) 12:58:26 145.980
BUGSAT 1 31 May 12:51:42 12:55:52 64° 258° (WSW) 13:00:00 437.445
FUNcube-1 31 May 12:51:55 12:54:27 16° 303° (WNW) 12:57:01 145.935
PCSat 31 May 12:57:27 13:01:54 25° 336° (NNW) 13:06:22 145.827
BEESAT 3 31 May 13:00:01 13:03:54 55° 319° (NW) 13:07:50 437.485
UKube-1 31 May 13:00:22 13:04:08 28° 95° (E) 13:07:52 .
UWE-3 31 May 13:01:04 13:01:20 10° 308° (NW) 13:01:35 435.000/436.395/437.385
DANDE 31 May 13:01:32 13:07:54 74° 98° (E) 13:15:53 436.750
DELFI C3 31 May 13:12:45 13:15:03 15° 303° (WNW) 13:17:22 145.870
AISAT 31 May 13:13:59 13:18:21 55° 101° (E) 13:22:41 437.250
HO-68 31 May 13:14:26 13:18:01 15° 326° (NW) 13:21:35 435.675
HUMSAT D 31 May 13:24:56 13:28:08 22° 299° (WNW) 13:31:22 437.325/437.525
Oscar 19 31 May 13:32:04 13:37:11 60° 69° (ENE) 13:42:18 437.125/150
POPSAT HIP 1 31 May 13:35:40 13:37:54 14° 272° (W) 13:40:10 437.405
QB50P1 31 May 13:35:43 13:37:55 14° 273° (W) 13:40:08 145.935-145.965
AIST 2 31 May 13:38:28 13:41:52 25° 118° (ESE) 13:45:18 435.215
QB50P2 31 May 13:40:02 13:41:46 12° 274° (W) 13:43:31 145.880/145.840
POLYITAN 1 31 May 13:42:39 13:44:16 12° 274° (W) 13:45:54 437.675
AO-85 31 May 13:44:10 13:49:05 67° 42° (NE) 13:53:32 145.980
AO-7 31 May 13:51:14 13:57:45 27° 41° (NE) 14:04:17 29.400- 29.500
DX 1 31 May 13:54:22 13:58:45 79° 288° (WNW) 14:03:06 434.975-435.025
JAS-2 31 May 13:55:09 14:02:45 64° 260° (W) 14:10:37 435.910
CUBEBUG 1 31 May 13:56:03 14:00:24 62° 289° (WNW) 14:04:41 437.445
Cosmos 2491 31 May 14:03:57 14:11:35 32° 58° (ENE) 14:19:08 435.465 / 435.565
SPROUT 31 May 14:04:26 14:08:43 74° 102° (ESE) 14:12:58 437.525
ESTCUBE 1 31 May 14:08:59 14:13:12 38° 295° (WNW) 14:17:23 437.505/2401.250
BEESAT 2 31 May 14:11:30 14:15:01 29° 329° (NNW) 14:18:34 435.950
VELOX 1 31 May 14:13:51 14:18:07 46° 293° (WNW) 14:22:20 145.980
TISAT 1 31 May 14:13:53 14:17:35 29° 95° (E) 14:21:15 437.305
CUSAT 1 31 May 14:14:51 14:21:19 31° 304° (NW) 14:28:21 437.405
ITAMSAT 1 31 May 14:23:00 14:27:40 35° 61° (ENE) 14:32:21 435.822/435.867
50 SAT 31 May 14:23:33 14:26:42 26° 296° (WNW) 14:29:50 437.505
Gurwin Techsat 1B 31 May 14:26:54 14:32:12 76° 71° (ENE) 14:37:32 435.225
UKube-1 31 May 14:36:14 14:40:18 40° 294° (WNW) 14:44:20 .
BEESAT 3 31 May 14:39:32 14:42:23 19° 341° (NNW) 14:45:16 437.485
PCSat 31 May 14:43:31 14:47:11 18° 2° (N) 14:50:51 145.827
DANDE 31 May 14:45:37 14:51:38 33° 304° (NW) 14:58:45 436.750
AISAT 31 May 14:51:03 14:54:33 23° 301° (WNW) 14:58:01 437.250
Oscar 19 31 May 15:12:37 15:16:53 25° 268° (W) 15:21:11 437.125/150
SWISSCUBE 31 May 15:15:17 15:19:31 30° 95° (E) 15:23:44 437.505
AIST 2 31 May 15:16:01 15:20:06 57° 319° (NW) 15:24:13 435.215
ITUPSAT 1 31 May 15:23:39 15:27:58 32° 95° (E) 15:32:15 437.325
AO-85 31 May 15:25:19 15:29:08 24° 245° (WSW) 15:32:41 145.980
DX 1 31 May 15:32:01 15:34:16 14° 307° (NW) 15:36:30 434.975-435.025
CUBEBUG 1 31 May 15:34:27 15:35:50 11° 309° (NW) 15:37:13 437.445
AO-7 31 May 15:41:06 15:49:22 75° 64° (ENE) 15:57:43 29.400- 29.500
SPROUT 31 May 15:41:23 15:44:12 17° 303° (WNW) 15:47:00 437.525
BEESAT 31 May 15:44:18 15:48:57 47° 100° (E) 15:53:34 436.000
JAS-2 31 May 15:44:41 15:49:19 17° 281° (WNW) 15:54:02 435.910
TISAT 1 31 May 15:49:28 15:53:19 36° 294° (WNW) 15:57:07 437.305
BEESAT 2 31 May 15:51:39 15:54:02 15° 353° (N) 15:56:26 435.950
Cosmos 2491 31 May 16:00:42 16:09:30 81° 263° (W) 16:18:12 435.465 / 435.565
ITAMSAT 1 31 May 16:02:07 16:07:04 44° 261° (W) 16:12:03 435.822/435.867
CUSAT 1 31 May 16:03:54 16:06:24 12° 329° (NNW) 16:08:55 437.405
HORYU 2 31 May 16:05:04 16:08:29 22° 59° (ENE) 16:11:55 437.375
YUBILEINY 31 May 16:06:35 16:14:35 44° 86° (E) 16:22:37 435.215
Gurwin Techsat 1B 31 May 16:08:53 16:12:46 20° 271° (W) 16:16:40 435.225
RS-15 31 May 16:12:06 16:20:09 23° 98° (E) 16:28:27 29.354- 29.394
NOAA 18 31 May 16:18:35 16:20:19 12° 42° (NE) 16:22:04 137.9125
BEESAT 3 31 May 16:19:13 16:21:30 15° 5° (N) 16:23:46 437.485
MOZHAYETS 4 31 May 16:19:52 16:22:29 15° 86° (E) 16:25:07
BRITE-PL 31 May 16:26:25 16:28:03 11° 46° (NE) 16:29:40 437.365/2234.400
PCSat 31 May 16:27:44 16:32:23 28° 28° (NNE) 16:37:00 145.827
Cosmos 2504 31 May 16:30:51 16:35:24 18° 72° (ENE) 16:40:08 435.465 / 435.565
CUTE-I 31 May 16:31:52 16:33:19 11° 43° (NE) 16:34:45 437.470
DANDE 31 May 16:34:44 16:37:30 12° 330° (NNW) 16:40:24 436.750
SWISSCUBE 31 May 16:52:54 16:57:29 45° 294° (WNW) 17:02:03 437.505
AIST 2 31 May 16:56:17 16:59:24 20° 341° (NNW) 17:02:31 435.215
O/OREOS (USA 219) 31 May 16:56:20 16:58:49 14° 33° (NNE) 17:01:17 437.305
ITUPSAT 1 31 May 17:01:23 17:05:56 43° 294° (WNW) 17:10:28 437.325
NOAA 15 31 May 17:03:35 17:07:41 23° 55° (NE) 17:11:47 137.62
KKS-1 31 May 17:10:04 17:14:22 45° 100° (E) 17:18:37 437.445
BEESAT 31 May 17:22:26 17:26:35 30° 299° (WNW) 17:30:42 436.000
Cubesat XI-IV 31 May 17:23:26 17:27:34 24° 55° (NE) 17:31:42 437.490
BEESAT 2 31 May 17:30:32 17:33:19 18° 17° (NNE) 17:36:06 435.950
STARS 31 May 17:34:24 17:38:35 42° 99° (E) 17:42:44 437.465
AO-7 31 May 17:35:37 17:42:54 33° 266° (W) 17:50:15 29.400- 29.500
HORYU 2 31 May 17:40:22 17:44:43 58° 258° (WSW) 17:49:07 437.375
NOAA 18 31 May 17:54:35 17:59:45 45° 64° (ENE) 18:04:56 137.9125
MOZHAYETS 4 31 May 17:55:39 18:00:19 86° 285° (WNW) 18:04:58
CUBESAT XI-V 31 May 17:56:11 17:59:20 17° 88° (E) 18:02:28 437.345
BEESAT 3 31 May 17:57:02 18:00:25 26° 28° (NNE) 18:03:48 437.485
Cosmos 2491 31 May 17:58:48 18:04:59 22° 286° (WNW) 18:11:08 435.465 / 435.565
BRITE-PL 31 May 17:59:54 18:05:16 44° 66° (ENE) 18:10:32 437.365/2234.400
YUBILEINY 31 May 18:02:43 18:11:14 56° 290° (WNW) 18:19:49 435.215
GOMX 1 31 May 18:04:05 18:08:33 27° 61° (ENE) 18:12:51 467.674
CUTE-I 31 May 18:07:07 18:12:09 45° 64° (ENE) 18:17:13 437.470
PCSat 31 May 18:11:04 18:16:33 83° 51° (NE) 18:22:00 145.827
LilacSat-2 31 May 18:12:25 18:15:53 34° 67° (ENE) 18:19:20 437.200
RS-15 31 May 18:18:57 18:30:18 71° 123° (ESE) 18:42:17 29.354- 29.394
Cosmos 2504 31 May 18:19:58 18:27:17 74° 96° (E) 18:35:10 435.465 / 435.565
HO-68 31 May 18:27:01 18:32:13 22° 44° (NE) 18:37:26 435.675
DOVE 4 31 May 18:32:10 18:36:07 24° 60° (ENE) 18:39:55 437.250
O/OREOS (USA 219) 31 May 18:34:48 18:39:15 56° 56° (NE) 18:43:40 437.305
AIST 2 31 May 18:36:44 18:39:19 16° 5° (N) 18:41:53 435.215
M-CUBED/EXP-1 PRIME 31 May 18:39:01 18:41:00 14° 51° (NE) 18:42:55 437.505
NOAA 15 31 May 18:41:38 18:46:58 77° 256° (WSW) 18:52:19 137.62
KKS-1 31 May 18:47:00 18:50:45 27° 299° (WNW) 18:54:29 437.445
CANX-2 31 May 18:56:21 18:58:15 13° 54° (NE) 19:00:11 2200.000
Cubesat XI-IV 31 May 19:01:50 19:07:09 75° 256° (WSW) 19:12:31 437.490
BEESAT 2 31 May 19:08:09 19:12:03 47° 39° (NE) 19:15:56 435.950
STARS 31 May 19:11:05 19:14:49 28° 298° (WNW) 19:18:32 437.465
STRAND 1 31 May 19:20:44 19:22:17 11° 83° (E) 19:23:49 437.568
CUTE 1.7 + AOD 2 31 May 19:21:32 19:24:27 18° 58° (ENE) 19:27:23 437.475
AAUSAT CUBESAT 2 31 May 19:27:51 19:28:47 11° 52° (NE) 19:29:44 437.432
COMPASS 1 31 May 19:28:32 19:30:26 13° 54° (NE) 19:32:20 437.405
CUBESAT XI-V 31 May 19:32:33 19:37:17 75° 287° (WNW) 19:41:59 437.345
MOZHAYETS 4 31 May 19:34:03 19:36:51 16° 306° (NW) 19:39:39
BEESAT 3 31 May 19:34:32 19:38:31 75° 230° (SW) 19:42:28 437.485
NOAA 18 31 May 19:35:33 19:40:33 36° 264° (W) 19:45:34 137.9125
BRITE-PL 31 May 19:38:27 19:43:47 40° 265° (W) 19:49:03 437.365/2234.400
CUSAT 1 31 May 19:38:55 19:39:44 10° 27° (NNE) 19:40:34 437.405
GOMX 1 31 May 19:40:55 19:46:19 63° 259° (W) 19:51:30 467.674
LilacSat-2 31 May 19:47:04 19:50:16 25° 266° (W) 19:53:29 437.200
CUTE-I 31 May 19:47:31 19:52:21 34° 265° (W) 19:57:13 437.470
PCSat 31 May 19:55:19 19:59:22 22° 251° (WSW) 20:03:24 145.827
AUBIESAT-1 31 May 20:00:45 20:04:34 61° 65° (ENE) 20:08:08 437.475
YUBILEINY 31 May 20:04:57 20:10:27 18° 317° (NW) 20:15:59 435.215
ZACube-1 31 May 20:07:47 20:08:40 11° 52° (NE) 20:09:33 437.345
CINEMA 3 31 May 20:07:59 20:12:24 48° 69° (ENE) 20:16:38 145.822/145.860
GONETS M04 31 May 20:08:11 20:11:03 12° 64° (ENE) 20:13:55
DOVE 4 31 May 20:08:24 20:13:29 65° 258° (WSW) 20:18:19 437.250
DANDE 31 May 20:10:06 20:12:31 11° 28° (NNE) 20:14:54 436.750
M-CUBED/EXP-1 PRIME 31 May 20:11:13 20:15:10 87° 244° (WSW) 20:18:50 437.505
HO-68 31 May 20:11:47 20:18:53 72° 67° (ENE) 20:26:02 435.675
O/OREOS (USA 219) 31 May 20:14:49 20:18:19 23° 256° (WSW) 20:21:49 437.305
Cosmos 2504 31 May 20:15:03 20:21:32 31° 301° (WNW) 20:28:26 435.465 / 435.565
AIST 2 31 May 20:15:26 20:19:03 28° 28° (NNE) 20:22:40 435.215
SEEDS 31 May 20:23:19 20:27:19 46° 69° (ENE) 20:31:23 437.485
NOAA 15 31 May 20:24:55 20:27:39 14° 275° (W) 20:30:24 137.62
CUBEBUG 2 31 May 20:29:06 20:32:45 28° 64° (ENE) 20:36:21 437.445
CANX-2 31 May 20:29:13 20:33:26 77° 72° (ENE) 20:37:42 2200.000
RS-15 31 May 20:31:52 20:43:24 59° 333° (NNW) 20:55:32 29.354- 29.394
FUNcube-1 31 May 20:41:03 20:43:58 19° 59° (ENE) 20:46:54 145.935
ISS 31 May 20:44:50 20:45:58 11° 139° (SE) 20:47:05 145.825
Cubesat XI-IV 31 May 20:45:36 20:48:11 14° 276° (W) 20:50:46 437.490
BEESAT 2 31 May 20:46:16 20:49:46 30° 240° (WSW) 20:53:16 435.950
UWE-3 31 May 20:48:21 20:52:03 30° 65° (ENE) 20:55:43 435.000/436.395/437.385
PRISM 31 May 20:52:46 20:54:45 13° 87° (E) 20:56:43 437.425
Cosmos 2499 31 May 20:54:52 20:57:37 12° 66° (ENE) 21:00:25 435.465 / 435.565
DELFI C3 31 May 20:55:17 20:57:39 15° 57° (ENE) 21:00:03 145.870
CUTE 1.7 + AOD 2 31 May 20:55:40 20:59:52 68° 257° (WSW) 21:04:07 437.475
STRAND 1 31 May 20:57:20 21:02:29 65° 103° (ESE) 21:07:36 437.568
AAUSAT CUBESAT 2 31 May 20:59:22 21:03:28 63° 71° (ENE) 21:07:37 437.432
COMPASS 1 31 May 21:01:09 21:05:18 79° 73° (ENE) 21:09:31 437.405
CUBESAT XI-V 31 May 21:11:22 21:13:55 15° 307° (NW) 21:16:28 437.345
HUMSAT D 31 May 21:12:52 21:14:36 12° 54° (NE) 21:16:20 437.325/437.525
BEESAT 3 31 May 21:14:08 21:15:31 12° 249° (WSW) 21:16:54 437.485
Oscar 11 31 May 21:17:12 21:21:18 44° 68° (ENE) 21:25:25 145.826/435.025
CUSAT 1 31 May 21:18:29 21:25:02 28° 53° (NE) 21:30:47 437.405
AIST 1 31 May 21:23:15 21:27:25 43° 93° (E) 21:31:36
GOMX 1 31 May 21:23:40 21:25:21 11° 278° (W) 21:27:01 467.674
AUBIESAT-1 31 May 21:37:00 21:39:23 16° 262° (W) 21:41:41 437.475
ZACube-1 31 May 21:40:03 21:44:11 63° 72° (ENE) 21:48:18 437.345
CINEMA 3 31 May 21:46:01 21:49:46 24° 267° (W) 21:53:25 145.822/145.860
M-CUBED/EXP-1 PRIME 31 May 21:49:21 21:50:13 11° 265° (W) 21:51:04 437.505
DOVE 4 31 May 21:50:46 21:52:03 11° 277° (W) 21:53:19 437.250
DANDE 31 May 21:51:26 21:58:36 29° 54° (NE) 22:05:20 436.750
AIST 2 31 May 21:53:47 21:57:57 73° 230° (SW) 22:02:05 435.215
GONETS M04 31 May 21:57:17 22:05:37 50° 88° (E) 22:13:54
SEEDS 31 May 21:59:55 22:03:16 23° 268° (W) 22:06:41 437.485
HO-68 31 May 22:01:08 22:07:14 30° 268° (W) 22:13:25 435.675
ESTCUBE 1 31 May 22:04:04 22:05:39 12° 50° (NE) 22:07:14 437.505/2401.250
CUBEBUG 2 31 May 22:05:16 22:09:18 39° 263° (W) 22:13:15 437.445
CANX-2 31 May 22:07:30 22:09:51 14° 273° (W) 22:12:13 2200.000
FUNcube-1 31 May 22:15:43 22:19:51 63° 258° (WSW) 22:23:59 145.935
ISS 31 May 22:18:40 22:21:45 39° 157° (SSE) 22:24:50 145.825
UWE-3 31 May 22:24:37 22:28:30 35° 263° (W) 22:32:21 435.000/436.395/437.385
PRISM 31 May 22:26:28 22:30:40 85° 288° (WNW) 22:34:51 437.425
DELFI C3 31 May 22:28:02 22:32:01 77° 257° (WSW) 22:36:04 145.870
AAUSAT CUBESAT 2 31 May 22:36:37 22:39:23 17° 271° (W) 22:42:11 437.432
STRAND 1 31 May 22:37:08 22:41:17 25° 303° (WNW) 22:45:27 437.568
COMPASS 1 31 May 22:39:14 22:41:27 14° 273° (W) 22:43:40 437.405
Cosmos 2499 31 May 22:41:28 22:48:39 54° 90° (E) 22:56:26 435.465 / 435.565
AISAT 31 May 22:42:23 22:45:20 18° 56° (NE) 22:48:17 437.250
HUMSAT D 31 May 22:45:29 22:49:34 79° 74° (ENE) 22:53:40 437.325/437.525
RS-15 31 May 22:47:08 22:58:38 47° 5° (N) 23:10:29 29.354- 29.394
Oscar 11 31 May 22:54:02 22:57:37 25° 267° (W) 23:01:14 145.826/435.025
CUSAT 1 31 May 23:00:26 23:08:19 89° 258° (WSW) 23:14:47 437.405
AIST 1 31 May 23:01:29 23:05:12 26° 293° (WNW) 23:08:56
UNISAT 6 31 May 23:10:53 23:14:18 22° 92° (E) 23:17:44 437.425
TIGRISAT 31 May 23:16:49 23:20:19 24° 93° (E) 23:23:51 435.000
ZACube-1 31 May 23:18:10 23:20:55 17° 271° (W) 23:23:39 437.345
DX 1 31 May 23:20:02 23:23:47 28° 62° (ENE) 23:27:32 434.975-435.025
CUBEBUG 1 31 May 23:21:44 23:25:42 33° 64° (ENE) 23:29:42 437.445
SPROUT 31 May 23:29:17 23:32:16 19° 58° (ENE) 23:35:14 437.525
50 SAT 31 May 23:33:19 23:36:43 38° 68° (ENE) 23:40:11 437.505
AIST 2 31 May 23:34:06 23:35:43 12° 249° (WSW) 23:37:20 435.215
DANDE 31 May 23:34:09 23:42:41 87° 76° (ENE) 23:50:21 436.750
ESTCUBE 1 31 May 23:37:07 23:41:35 60° 70° (ENE) 23:46:05 437.505/2401.250
VELOX 1 31 May 23:40:19 23:44:36 47° 67° (ENE) 23:48:53 145.980
QB50P2 31 May 23:43:04 23:43:24 10° 85° (E) 23:43:43 145.880/145.840
POLYITAN 1 31 May 23:45:19 23:45:54 10° 85° (E) 23:46:29 437.675
ANTELSAT 31 May 23:51:28 23:55:41 50° 100° (E) 23:59:57 437.575/2403.000
NANOSAT C BR1 31 May 23:53:46 23:55:24 12° 86° (E) 23:57:03 145.865
GONETS M04 31 May 23:54:04 00:02:32 50° 292° (WNW) 00:11:00
ISS 31 May 23:54:45 23:58:01 75° 177° (S) 00:01:17 145.825
UKube-1 01 Jun 00:00:12 00:04:24 51° 69° (ENE) 00:08:38 .
PRISM 01 Jun 00:03:11 00:05:22 14° 306° (NW) 00:07:32 437.425
YUBILEINY 01 Jun 00:13:41 00:15:22 11° 28° (NNE) 00:17:04 435.215
AISAT 01 Jun 00:16:48 00:21:18 81° 255° (WSW) 00:25:48 437.250
SO-50 01 Jun 00:17:08 00:21:29 32° 120° (ESE) 00:25:48 436.795
HUMSAT D 01 Jun 00:23:45 00:25:46 13° 273° (W) 00:27:48 437.325/437.525
DUCHIFAT 1 01 Jun 00:28:47 00:32:13 24° 93° (E) 00:35:37 145.980
BUGSAT 1 01 Jun 00:29:19 00:30:58 12° 87° (E) 00:32:36 437.445
Cosmos 2499 01 Jun 00:34:58 00:42:03 42° 295° (WNW) 00:49:44 435.465 / 435.565
CUSAT 1 01 Jun 00:43:39 00:49:18 23° 282° (WNW) 00:54:17 437.405
UNISAT 6 01 Jun 00:47:07 00:51:18 51° 291° (WNW) 00:55:32 437.425
SWISSCUBE 01 Jun 00:52:46 00:55:02 13° 50° (NE) 00:57:18 437.505
TIGRISAT 01 Jun 00:53:07 00:57:15 47° 291° (WNW) 01:01:25 435.000
DX 1 01 Jun 00:55:39 00:59:50 43° 261° (W) 01:04:02 434.975-435.025
CUBEBUG 1 01 Jun 00:57:52 01:01:58 36° 263° (W) 01:06:05 437.445
JAS-2 01 Jun 01:00:01 01:05:11 20° 81° (E) 01:10:00 435.910
ITUPSAT 1 01 Jun 01:01:11 01:03:39 14° 51° (NE) 01:06:07 437.325
RS-15 01 Jun 01:01:15 01:13:28 70° 37° (NE) 01:25:50 29.354- 29.394
SPROUT 01 Jun 01:03:30 01:07:47 69° 258° (WSW) 01:12:05 437.525
50 SAT 01 Jun 01:07:44 01:10:37 22° 267° (W) 01:13:32 437.505
TISAT 1 01 Jun 01:10:52 01:14:56 48° 69° (ENE) 01:19:00 437.305
QB50P1 01 Jun 01:11:48 01:16:00 66° 103° (ESE) 01:20:11 145.935-145.965
POPSAT HIP 1 01 Jun 01:11:51 01:16:03 65° 103° (ESE) 01:20:13 437.405
ESTCUBE 1 01 Jun 01:15:24 01:18:48 21° 270° (W) 01:22:13 437.505/2401.250
QB50P2 01 Jun 01:15:45 01:19:59 76° 103° (ESE) 01:24:12 145.880/145.840
VELOX 1 01 Jun 01:17:33 01:21:17 26° 267° (W) 01:25:02 145.980
DANDE 01 Jun 01:17:52 01:24:38 28° 280° (W) 01:30:54 436.750
POLYITAN 1 01 Jun 01:18:15 01:22:29 77° 105° (ESE) 01:26:40 437.675
BEESAT 01 Jun 01:20:33 01:23:54 19° 55° (NE) 01:27:16 436.000
NANOSAT C BR1 01 Jun 01:27:35 01:31:48 89° 96° (E) 01:36:00 145.865
ANTELSAT 01 Jun 01:28:43 01:32:10 24° 299° (WNW) 01:35:40 437.575/2403.000
ISS 01 Jun 01:31:09 01:34:21 51° 197° (SSW) 01:37:31 145.825
UKube-1 01 Jun 01:37:19 01:40:44 22° 267° (W) 01:44:11 .
Oscar 19 01 Jun 01:39:13 01:41:37 13° 84° (E) 01:44:00 437.125/150
AISAT 01 Jun 01:56:48 01:58:32 12° 275° (W) 02:00:15 437.250
SO-50 01 Jun 01:56:56 02:01:47 59° 320° (NW) 02:06:37 436.795
GONETS M04 01 Jun 01:57:04 02:02:04 16° 320° (NW) 02:07:03
BUGSAT 1 01 Jun 02:02:54 02:06:59 85° 284° (WNW) 02:10:59 437.445
DUCHIFAT 1 01 Jun 02:04:08 02:08:08 44° 292° (WNW) 02:12:06 145.980
YUBILEINY 01 Jun 02:08:20 02:16:00 32° 58° (ENE) 02:23:37 435.215
Cosmos 2504 01 Jun 02:11:57 02:15:59 14° 39° (NE) 02:20:06 435.465 / 435.565
SWISSCUBE 01 Jun 02:27:16 02:31:59 65° 70° (ENE) 02:36:45 437.505
Cosmos 2499 01 Jun 02:34:34 02:38:02 13° 323° (NW) 02:41:37 435.465 / 435.565
ITUPSAT 1 01 Jun 02:35:57 02:40:41 70° 71° (ENE) 02:45:29 437.325
Gurwin Techsat 1B 01 Jun 02:37:47 02:41:36 19° 88° (E) 02:45:22 435.225
KKS-1 01 Jun 02:39:28 02:42:05 15° 54° (NE) 02:44:42 437.445
JAS-2 01 Jun 02:43:57 02:51:32 80° 104° (ESE) 02:58:15 435.910
TISAT 1 01 Jun 02:47:30 02:50:50 22° 267° (W) 02:54:11 437.305
QB50P1 01 Jun 02:48:27 02:51:23 19° 302° (WNW) 02:54:19 145.935-145.965
POPSAT HIP 1 01 Jun 02:48:29 02:51:26 19° 302° (WNW) 02:54:24 437.405
QB50P2 01 Jun 02:52:35 02:55:19 17° 303° (WNW) 02:58:02 145.880/145.840
POLYITAN 1 01 Jun 02:55:06 02:57:47 17° 303° (WNW) 03:00:28 437.675
BEESAT 01 Jun 02:56:24 03:01:10 80° 255° (WSW) 03:05:59 436.000
STARS 01 Jun 03:02:51 03:05:10 14° 53° (NE) 03:07:28 437.465
NANOSAT C BR1 01 Jun 03:04:37 03:06:58 15° 305° (NW) 03:09:18 145.865
ISS 01 Jun 03:08:07 03:10:17 17° 216° (SW) 03:12:27 145.825
RS-15 01 Jun 03:14:09 03:25:51 55° 244° (WSW) 03:37:34 29.354- 29.394
Cosmos 2491 01 Jun 03:14:37 03:21:32 27° 77° (ENE) 03:28:24 435.465 / 435.565
Oscar 19 01 Jun 03:16:39 03:21:52 76° 104° (ESE) 03:27:00 437.125/150
MOZHAYETS 4 01 Jun 03:26:59 03:30:51 28° 62° (ENE) 03:34:45
AO-7 01 Jun 03:37:31 03:42:16 16° 82° (E) 03:46:59 29.400- 29.500
SO-50 01 Jun 03:39:12 03:43:11 24° 343° (NNW) 03:47:08 436.795
BUGSAT 1 01 Jun 03:39:49 03:41:44 13° 306° (NW) 03:43:38 437.445
Cosmos 2504 01 Jun 04:04:07 04:12:04 44° 66° (ENE) 04:20:22 435.465 / 435.565
YUBILEINY 01 Jun 04:05:03 04:13:49 80° 264° (W) 04:22:37 435.215
SWISSCUBE 01 Jun 04:06:42 04:10:14 20° 270° (W) 04:13:48 437.505
ITAMSAT 1 01 Jun 04:08:29 04:13:28 42° 98° (E) 04:18:25 435.822/435.867
KKS-1 01 Jun 04:13:33 04:18:01 86° 79° (ENE) 04:22:32 437.445
ITUPSAT 1 01 Jun 04:15:38 04:19:02 19° 270° (W) 04:22:28 437.325
Gurwin Techsat 1B 01 Jun 04:16:50 04:22:11 79° 288° (WNW) 04:27:30 435.225
JAS-2 01 Jun 04:29:29 04:35:50 31° 308° (NW) 04:41:41 435.910
STARS 01 Jun 04:36:27 04:40:51 80° 74° (ENE) 04:45:16 437.465
BEESAT 01 Jun 04:37:40 04:39:46 13° 275° (W) 04:41:53 436.000
Oscar 19 01 Jun 04:56:46 05:00:42 22° 305° (NW) 05:04:36 437.125/150
MOZHAYETS 4 01 Jun 05:03:27 05:07:50 47° 261° (W) 05:12:18
CUBESAT XI-V 01 Jun 05:04:45 05:08:56 33° 64° (ENE) 05:13:09 437.345
Cosmos 2491 01 Jun 05:08:28 05:17:20 87° 280° (W) 05:26:12 435.465 / 435.565
SO-50 01 Jun 05:21:32 05:25:10 21° 7° (N) 05:28:46 436.795
HORYU 2 01 Jun 05:26:00 05:29:02 18° 90° (E) 05:32:04 437.375
AO-7 01 Jun 05:28:31 05:36:51 63° 105° (ESE) 05:45:08 29.400- 29.500
RS-15 01 Jun 05:29:17 05:35:17 15° 269° (W) 05:41:19 29.354- 29.394
AO-85 01 Jun 05:43:35 05:48:21 32° 118° (ESE) 05:53:00 145.980
ITAMSAT 1 01 Jun 05:48:07 05:52:55 37° 298° (WNW) 05:57:41 435.822/435.867
KKS-1 01 Jun 05:52:52 05:55:15 14° 273° (W) 05:57:37 437.445
Cosmos 2504 01 Jun 05:57:35 06:05:47 58° 269° (W) 06:14:22 435.465 / 435.565
Gurwin Techsat 1B 01 Jun 05:57:55 06:01:23 18° 309° (NW) 06:04:50 435.225
YUBILEINY 01 Jun 06:03:07 06:09:17 22° 286° (WNW) 06:15:27 435.215
GONETS M04 01 Jun 06:04:15 06:07:07 12° 31° (NNE) 06:09:58
NOAA 18 01 Jun 06:12:55 06:14:14 11° 82° (E) 06:15:33 137.9125
STARS 01 Jun 06:15:16 06:17:48 15° 272° (W) 06:20:20 437.465
JAS-2 01 Jun 06:16:41 06:18:31 11° 332° (NNW) 06:20:19 435.910
CUTE-I 01 Jun 06:20:28 06:21:44 11° 82° (E) 06:23:00 437.470
Cosmos 2499 01 Jun 06:33:05 06:35:11 11° 32° (NNE) 06:37:19 435.465 / 435.565
STRAND 1 01 Jun 06:41:00 06:45:27 31° 60° (ENE) 06:49:55 437.568
CUBESAT XI-V 01 Jun 06:41:49 06:46:14 40° 263° (W) 06:50:44 437.345
NOAA 15 01 Jun 06:51:07 06:55:32 26° 92° (E) 06:59:55 137.62
HORYU 2 01 Jun 07:01:38 07:06:03 68° 290° (WNW) 07:10:28 437.375
SO-50 01 Jun 07:02:25 07:06:54 37° 31° (NNE) 07:11:16 436.795
Cosmos 2491 01 Jun 07:08:19 07:15:34 27° 306° (NW) 07:22:51 435.465 / 435.565
Cubesat XI-IV 01 Jun 07:13:12 07:17:50 29° 93° (E) 07:22:27 437.490
LilacSat-2 01 Jun 07:14:10 07:17:14 23° 93° (E) 07:20:18 437.200
AO-7 01 Jun 07:21:40 07:29:24 44° 307° (NW) 07:37:08 29.400- 29.500
AO-85 01 Jun 07:23:15 07:28:39 66° 318° (NW) 07:33:50 145.980
AIST 1 01 Jun 07:24:18 07:27:45 22° 65° (ENE) 07:31:09
BRITE-PL 01 Jun 07:37:22 07:42:23 51° 98° (E) 07:46:57 437.365/2234.400
GOMX 1 01 Jun 07:37:37 07:41:31 26° 91° (E) 07:45:12 467.674
PRISM 01 Jun 07:47:14 07:50:29 22° 60° (ENE) 07:53:45 437.425
NOAA 18 01 Jun 07:50:37 07:56:04 60° 102° (ESE) 08:01:30 137.9125
Cosmos 2504 01 Jun 07:53:08 07:57:26 15° 291° (WNW) 08:01:50 435.465 / 435.565
CUTE-I 01 Jun 07:57:35 08:02:54 61° 102° (ESE) 08:08:13 437.470
DOVE 4 01 Jun 08:02:11 08:05:32 21° 90° (E) 08:08:46 437.250
